Location: NJAA Observatory
(40.6819°N, 74.8979°W)
Time: 20:20:39
(UTC-04:00)

Iridium 56 - Visible Passes

Search period start: 25 September 2017 00:00
Search period end: 05 October 2017 00:00
Orbit: 776 x 779 km, 86.4° (Epoch: 25 September)

Date Brightness Start Highest point End Pass type
(mag) Time Alt. Az. Time Alt. Az. Time Alt. Az.
25 Sep 6.8 20:28:57 22° NE 20:28:57 22° NE 20:31:41 10° NNE visible
25 Sep 7.2 22:09:23 30° NW 22:09:23 30° NW 22:12:45 10° NNW visible
26 Sep 7.3 19:55:08 13° ENE 19:55:08 13° ENE 19:56:52 10° NE visible
26 Sep 6.3 21:35:34 49° NNW 21:35:34 49° NNW 21:39:32 10° N visible
27 Sep 5.7 21:01:42 57° NE 21:01:42 57° NE 21:06:01 10° N visible
27 Sep 8.2 22:42:08 14° WNW 22:42:08 14° WNW 22:44:40 10° NW visible
28 Sep 6.1 20:27:45 36° ENE 20:27:45 36° ENE 20:32:10 10° NNE visible
28 Sep 7.5 22:08:10 25° W 22:08:12 25° WNW 22:12:28 10° NNW visible
29 Sep 6.7 19:53:40 20° E 19:54:09 20° E 19:57:53 10° NE visible
29 Sep 6.4 21:34:04 44° W 21:34:29 45° W 21:39:29 10° N visible
30 Sep 7.3 19:19:51 10° E 19:20:59 11° ENE 19:22:07 10° ENE visible
30 Sep 5.5 20:59:48 57° SSW 21:00:53 84° W 21:06:08 10° N visible
01 Oct 5.6 20:25:11 31° SSE 20:27:25 53° E 20:32:29 10° NNE visible
01 Oct 8.0 22:05:32 12° WSW 22:08:28 17° WNW 22:11:55 10° NNW visible
02 Oct 6.3 19:49:39 10° SE 19:54:04 29° E 19:58:30 10° NNE visible
02 Oct 7.2 21:30:05 10° SW 21:34:40 31° W 21:39:18 10° NNW visible
03 Oct 7.0 19:17:46 10° ESE 19:20:50 16° ENE 19:23:55 10° NE visible
03 Oct 6.0 20:55:53 10° SSW 21:01:00 57° W 21:06:09 10° N visible
04 Oct 5.4 20:22:16 10° S 20:27:27 77° E 20:32:41 10° N visible
04 Oct 8.5 22:06:52 10° W 22:08:48 12° WNW 22:10:45 10° NW visible
